| time (UTC) | temp F | wind direction | speed MPH | gust MPH | rain 1hr in | rain 24hr in | rain mn in | humidity % | barometer mb |
| 20260905234601 | 84 | 27 | 5.0 | 12.0 | 0.00 | 0.00 | 0.00 | 78 | 983.9 |
| 20260905234101 | 85 | 355 | 5.0 | 12.0 | 0.00 | 0.00 | 0.00 | 77 | 983.8 |
| 20260905233601 | 86 | 11 | 5.0 | 12.0 | 0.00 | 0.00 | 0.00 | 76 | 983.6 |
| 20260905232101 | 88 | 352 | 6.0 | 12.0 | 0.00 | 0.00 | 0.00 | 71 | 982.8 |
| 20260905231601 | 89 | 332 | 6.0 | 10.0 | 0.00 | 0.00 | 0.00 | 69 | 982.5 |
| 20260905231101 | 89 | 333 | 6.0 | 12.0 | 0.00 | 0.00 | 0.00 | 69 | 982.4 |
| 20260905230601 | 89 | 348 | 6.0 | 14.0 | 0.00 | 0.00 | 0.00 | 68 | 982.4 |
| 20260905225602 | 89 | 309 | 5.0 | 12.0 | 0.00 | 0.00 | 0.00 | 67 | 982.3 |
| 20260905225101 | 89 | 331 | 5.0 | 10.0 | 0.00 | 0.00 | 0.00 | 68 | 982.1 |
| 20260905224602 | 89 | 320 | 6.0 | 13.0 | 0.00 | 0.00 | 0.00 | 68 | 982.0 |
| 20260905224101 | 89 | 314 | 6.0 | 15.0 | 0.00 | 0.00 | 0.00 | 67 | 982.0 |
| 20260905223601 | 90 | 333 | 7.0 | 15.0 | 0.00 | 0.00 | 0.00 | 67 | 982.0 |
| 20260905223101 | 90 | 315 | 5.0 | 14.0 | 0.00 | 0.00 | 0.00 | 66 | 982.0 |
| 20260905222102 | 90 | 328 | 5.0 | 13.0 | 0.00 | 0.00 | 0.00 | 66 | 982.0 |
| 20260905221602 | 90 | 325 | 6.0 | 13.0 | 0.00 | 0.00 | 0.00 | 66 | 981.9 |
| 20260905221101 | 90 | 336 | 6.0 | 14.0 | 0.00 | 0.00 | 0.00 | 66 | 981.9 |
| 20260905220602 | 90 | 319 | 7.0 | 15.0 | 0.00 | 0.00 | 0.00 | 65 | 981.8 |
| 20260905215602 | 91 | 306 | 8.0 | 14.0 | 0.00 | 0.00 | 0.00 | 67 | 981.8 |
| 20260905215101 | 91 | 296 | 5.0 | 13.0 | 0.00 | 0.00 | 0.00 | 67 | 981.7 |
| 20260905214602 | 91 | 295 | 4.0 | 10.0 | 0.00 | 0.00 | 0.00 | 67 | 981.6 |
| 20260905214101 | 91 | 300 | 7.0 | 12.0 | 0.00 | 0.00 | 0.00 | 66 | 981.7 |
| 20260905213601 | 91 | 303 | 6.0 | 14.0 | 0.00 | 0.00 | 0.00 | 66 | 981.4 |
| 20260905212601 | 91 | 337 | 2.0 | 7.0 | 0.00 | 0.00 | 0.00 | 67 | 981.5 |
| 20260905211601 | 91 | 292 | 5.0 | 10.0 | 0.00 | 0.00 | 0.00 | 67 | 981.5 |
| 20260905211101 | 90 | 280 | 5.0 | 8.0 | 0.00 | 0.00 | 0.00 | 69 | 981.8 |
| 20260905210602 | 91 | 321 | 4.0 | 10.0 | 0.00 | 0.00 | 0.00 | 69 | 981.8 |
| 20260905205601 | 91 | 308 | 5.0 | 10.0 | 0.00 | 0.00 | 0.00 | 67 | 981.6 |
| 20260905205101 | 91 | 323 | 3.0 | 9.0 | 0.00 | 0.00 | 0.00 | 67 | 981.3 |
| 20260905204602 | 90 | 315 | 3.0 | 8.0 | 0.00 | 0.00 | 0.00 | 68 | 981.6 |
| 20260905204102 | 90 | 290 | 3.0 | 12.0 | 0.00 | 0.00 | 0.00 | 70 | 981.9 |
| 20260905203101 | 90 | 298 | 3.0 | 8.0 | 0.00 | 0.00 | 0.00 | 71 | 981.8 |
| 20260905202102 | 89 | 301 | 3.0 | 7.0 | 0.00 | 0.00 | 0.00 | 74 | 982.0 |
| 20260905201602 | 89 | 279 | 4.0 | 7.0 | 0.00 | 0.00 | 0.00 | 74 | 982.3 |
| 20260905201102 | 89 | 298 | 3.0 | 8.0 | 0.00 | 0.00 | 0.00 | 75 | 982.2 |
| 20260905200604 | 89 | 289 | 3.0 | 7.0 | 0.00 | 0.00 | 0.00 | 74 | 982.2 |
| 20260905195602 | 90 | 269 | 2.0 | 10.0 | 0.00 | 0.00 | 0.00 | 75 | 982.2 |
| 20260905195102 | 91 | 291 | 5.0 | 9.0 | 0.00 | 0.00 | 0.00 | 69 | 981.9 |
| 20260905194602 | 92 | 285 | 5.0 | 10.0 | 0.00 | 0.00 | 0.00 | 65 | 981.4 |
| 20260905194102 | 92 | 316 | 4.0 | 9.0 | 0.00 | 0.00 | 0.00 | 65 | 981.4 |
| 20260905193602 | 92 | 323 | 3.0 | 7.0 | 0.00 | 0.00 | 0.00 | 67 | 981.5 |
| 20260905193102 | 91 | 267 | 2.0 | 7.0 | 0.00 | 0.00 | 0.00 | 67 | 981.7 |
| 20260905192102 | 92 | 294 | 3.0 | 7.0 | 0.00 | 0.00 | 0.00 | 66 | 981.6 |
| 20260905191102 | 92 | 255 | 3.0 | 7.0 | 0.00 | 0.00 | 0.00 | 64 | 981.9 |
| 20260905190601 | 92 | 316 | 4.0 | 12.0 | 0.00 | 0.00 | 0.00 | 65 | 982.1 |
| 20260905185602 | 92 | 217 | 2.0 | 7.0 | 0.00 | 0.00 | 0.00 | 65 | 981.7 |
| 20260905185102 | 92 | 308 | 5.0 | 10.0 | 0.00 | 0.00 | 0.00 | 63 | 981.9 |
| 20260905184601 | 92 | 284 | 5.0 | 9.0 | 0.00 | 0.00 | 0.00 | 62 | 981.8 |
| 20260905184102 | 92 | 288 | 6.0 | 9.0 | 0.00 | 0.00 | 0.00 | 62 | 981.9 |
| 20260905183602 | 92 | 268 | 4.0 | 8.0 | 0.00 | 0.00 | 0.00 | 63 | 981.8 |
| 20260905183102 | 91 | 292 | 4.0 | 8.0 | 0.00 | 0.00 | 0.00 | 64 | 981.9 |
| 20260905182602 | 91 | 281 | 2.0 | 8.0 | 0.00 | 0.00 | 0.00 | 65 | 982.1 |
| 20260905182102 | 91 | 254 | 3.0 | 7.0 | 0.00 | 0.00 | 0.00 | 66 | 982.3 |
| 20260905181601 | 91 | 280 | 5.0 | 9.0 | 0.00 | 0.00 | 0.00 | 65 | 982.3 |
| 20260905181101 | 91 | 305 | 6.0 | 10.0 | 0.00 | 0.00 | 0.00 | 64 | 982.2 |
| 20260905180602 | 92 | 281 | 4.0 | 9.0 | 0.00 | 0.00 | 0.00 | 65 | 982.1 |
| 20260905175602 | 92 | 290 | 3.0 | 9.0 | 0.00 | 0.00 | 0.00 | 65 | 982.1 |
| 20260905175102 | 92 | 301 | 3.0 | 13.0 | 0.00 | 0.00 | 0.00 | 65 | 982.2 |
| 20260905174602 | 92 | 337 | 5.0 | 13.0 | 0.00 | 0.00 | 0.00 | 65 | 982.3 |
| 20260905174102 | 92 | 304 | 3.0 | 8.0 | 0.00 | 0.00 | 0.00 | 63 | 982.2 |
| 20260905173602 | 92 | 290 | 4.0 | 10.0 | 0.00 | 0.00 | 0.00 | 64 | 982.2 |
| 20260905173102 | 92 | 297 | 3.0 | 8.0 | 0.00 | 0.00 | 0.00 | 64 | 982.2 |
| 20260905172601 | 92 | 303 | 5.0 | 12.0 | 0.00 | 0.00 | 0.00 | 62 | 982.1 |
| 20260905172102 | 92 | 291 | 5.0 | 8.0 | 0.00 | 0.00 | 0.00 | 62 | 982.1 |
| 20260905171602 | 91 | 298 | 7.0 | 17.0 | 0.00 | 0.00 | 0.00 | 62 | 982.1 |
| 20260905171102 | 91 | 275 | 6.0 | 10.0 | 0.00 | 0.00 | 0.00 | 62 | 982.3 |
| 20260905170602 | 91 | 302 | 5.0 | 10.0 | 0.00 | 0.00 | 0.00 | 63 | 982.4 |
| 20260905165602 | 91 | 321 | 3.0 | 10.0 | 0.00 | 0.00 | 0.00 | 64 | 982.5 |
| 20260905165102 | 91 | 297 | 5.0 | 12.0 | 0.00 | 0.00 | 0.00 | 63 | 982.3 |
| 20260905164602 | 91 | 284 | 6.0 | 10.0 | 0.00 | 0.00 | 0.00 | 63 | 982.4 |
| 20260905164102 | 91 | 244 | 2.0 | 8.0 | 0.00 | 0.00 | 0.00 | 64 | 982.5 |
| 20260905163602 | 91 | 292 | 5.0 | 9.0 | 0.00 | 0.00 | 0.00 | 62 | 982.6 |
| 20260905163102 | 91 | 301 | 5.0 | 9.0 | 0.00 | 0.00 | 0.00 | 62 | 982.7 |
| 20260905162602 | 91 | 267 | 3.0 | 12.0 | 0.00 | 0.00 | 0.00 | 64 | 982.6 |
| 20260905162103 | 90 | 311 | 4.0 | 9.0 | 0.00 | 0.00 | 0.00 | 64 | 982.7 |
| 20260905161603 | 90 | 273 | 5.0 | 9.0 | 0.00 | 0.00 | 0.00 | 65 | 982.7 |
| 20260905161102 | 90 | 266 | 4.0 | 8.0 | 0.00 | 0.00 | 0.00 | 66 | 982.7 |
| 20260905160602 | 90 | 270 | 3.0 | 8.0 | 0.00 | 0.00 | 0.00 | 66 | 982.6 |
| 20260905155603 | 90 | 267 | 4.0 | 9.0 | 0.00 | 0.00 | 0.00 | 65 | 982.9 |
| 20260905155103 | 90 | 275 | 5.0 | 9.0 | 0.00 | 0.00 | 0.00 | 67 | 982.9 |
| 20260905154602 | 89 | 283 | 2.0 | 6.0 | 0.00 | 0.00 | 0.00 | 68 | 982.9 |
| 20260905154103 | 89 | 234 | 4.0 | 9.0 | 0.00 | 0.00 | 0.00 | 68 | 982.9 |
| 20260905153602 | 89 | 243 | 3.0 | 9.0 | 0.00 | 0.00 | 0.00 | 69 | 983.0 |
| 20260905153102 | 89 | 277 | 3.0 | 8.0 | 0.00 | 0.00 | 0.00 | 70 | 983.0 |
| 20260905152602 | 88 | 232 | 3.0 | 7.0 | 0.00 | 0.00 | 0.00 | 70 | 983.1 |
| 20260905152103 | 88 | 266 | 3.0 | 8.0 | 0.00 | 0.00 | 0.00 | 72 | 983.1 |
| 20260905151602 | 87 | 242 | 3.0 | 8.0 | 0.00 | 0.00 | 0.00 | 72 | 983.1 |
| 20260905151102 | 87 | 214 | 5.0 | 10.0 | 0.00 | 0.00 | 0.00 | 72 | 983.2 |
| 20260905150602 | 87 | 240 | 5.0 | 9.0 | 0.00 | 0.00 | 0.00 | 72 | 983.2 |
| 20260905145602 | 87 | 238 | 5.0 | 10.0 | 0.00 | 0.00 | 0.00 | 73 | 983.2 |
| 20260905145102 | 87 | 247 | 4.0 | 9.0 | 0.00 | 0.00 | 0.00 | 73 | 983.2 |
| 20260905144604 | 86 | 253 | 3.0 | 8.0 | 0.00 | 0.00 | 0.00 | 74 | 983.2 |
| 20260905144103 | 86 | 230 | 5.0 | 10.0 | 0.00 | 0.00 | 0.00 | 74 | 983.4 |
| 20260905143102 | 85 | 272 | 3.0 | 9.0 | 0.00 | 0.00 | 0.00 | 75 | 983.6 |
| 20260905142602 | 85 | 232 | 2.0 | 9.0 | 0.00 | 0.00 | 0.00 | 75 | 983.7 |
| 20260905142102 | 85 | 219 | 5.0 | 8.0 | 0.00 | 0.00 | 0.00 | 75 | 983.8 |
| 20260905141603 | 84 | 247 | 3.0 | 7.0 | 0.00 | 0.00 | 0.00 | 77 | 984.0 |
| 20260905141102 | 84 | 223 | 4.0 | 9.0 | 0.00 | 0.00 | 0.00 | 78 | 984.1 |
| 20260905140603 | 84 | 231 | 5.0 | 8.0 | 0.00 | 0.00 | 0.00 | 78 | 984.2 |
| 20260905135603 | 83 | 225 | 5.0 | 8.0 | 0.00 | 0.00 | 0.00 | 78 | 984.3 |
| 20260905135102 | 83 | 217 | 5.0 | 7.0 | 0.00 | 0.00 | 0.00 | 78 | 984.3 |
| 20260905134102 | 83 | 249 | 2.0 | 3.0 | 0.00 | 0.00 | 0.00 | 79 | 984.2 |
| 20260905133602 | 83 | 230 | 2.0 | 7.0 | 0.00 | 0.00 | 0.00 | 80 | 984.4 |
| 20260905132603 | 82 | 224 | 2.0 | 6.0 | 0.00 | 0.00 | 0.00 | 82 | 984.7 |
| 20260905132102 | 82 | 221 | 4.0 | 8.0 | 0.00 | 0.00 | 0.00 | 81 | 984.8 |
| 20260905131602 | 81 | 221 | 5.0 | 8.0 | 0.00 | 0.00 | 0.00 | 82 | 984.9 |
| 20260905130602 | 81 | 227 | 3.0 | 6.0 | 0.00 | 0.00 | 0.00 | 83 | 985.0 |
| 20260905125603 | 81 | 227 | 3.0 | 8.0 | 0.00 | 0.00 | 0.00 | 81 | 984.8 |
| 20260905125103 | 81 | 217 | 2.0 | 7.0 | 0.00 | 0.00 | 0.00 | 81 | 984.8 |
| 20260905124602 | 80 | 213 | 3.0 | 5.0 | 0.00 | 0.00 | 0.00 | 82 | 984.8 |
| 20260905124103 | 80 | 225 | 3.0 | 6.0 | 0.00 | 0.00 | 0.00 | 83 | 984.9 |
| 20260905123602 | 79 | 226 | 2.0 | 3.0 | 0.00 | 0.00 | 0.00 | 84 | 985.1 |
| 20260905122602 | 78 | 201 | 2.0 | 5.0 | 0.00 | 0.00 | 0.00 | 85 | 985.3 |
| 20260905122102 | 77 | 176 | 2.0 | 5.0 | 0.00 | 0.00 | 0.00 | 86 | 985.5 |
| 20260905121102 | 77 | 0 | 0.0 | 2.0 | 0.00 | 0.00 | 0.00 | 86 | 985.5 |
| 20260905120603 | 77 | 221 | 0.0 | 2.0 | 0.00 | 0.00 | 0.00 | 86 | 985.5 |
| 20260905115603 | 78 | 250 | 0.0 | 2.0 | 0.00 | 0.00 | 0.00 | 85 | 985.3 |
| 20260905115103 | 77 | 259 | 1.0 | 3.0 | 0.00 | 0.00 | 0.00 | 85 | 985.3 |
| 20260905114602 | 76 | 223 | 2.0 | 3.0 | 0.00 | 0.00 | 0.00 | 86 | 985.5 |
| 20260905114103 | 76 | 219 | 2.0 | 3.0 | 0.00 | 0.00 | 0.00 | 87 | 985.7 |
| 20260905113603 | 76 | 238 | 1.0 | 2.0 | 0.00 | 0.00 | 0.00 | 87 | 985.7 |
| 20260905113102 | 76 | 314 | 0.0 | 1.0 | 0.00 | 0.00 | 0.00 | 87 | 985.6 |
| 20260905112603 | 76 | 0 | 0.0 | 1.0 | 0.00 | 0.00 | 0.00 | 87 | 985.6 |
| 20260905112102 | 76 | 0 | 0.0 | 0.0 | 0.00 | 0.00 | 0.00 | 87 | 985.6 |
| 20260905111603 | 77 | 0 | 0.0 | 0.0 | 0.00 | 0.00 | 0.00 | 86 | 985.6 |
| 20260905111103 | 77 | 0 | 0.0 | 0.0 | 0.00 | 0.00 | 0.00 | 86 | 985.5 |
| 20260905110603 | 77 | 0 | 0.0 | 1.0 | 0.00 | 0.00 | 0.00 | 86 | 985.3 |
| 20260905105603 | 78 | 295 | 0.0 | 2.0 | 0.00 | 0.00 | 0.00 | 86 | 985.2 |
| 20260905105103 | 78 | 247 | 2.0 | 3.0 | 0.00 | 0.00 | 0.00 | 85 | 985.1 |
| 20260905104602 | 78 | 249 | 2.0 | 3.0 | 0.00 | 0.00 | 0.00 | 85 | 985.2 |
| 20260905104103 | 79 | 244 | 1.0 | 3.0 | 0.00 | 0.00 | 0.00 | 85 | 985.1 |
| 20260905103603 | 78 | 248 | 2.0 | 5.0 | 0.00 | 0.00 | 0.00 | 85 | 985.1 |
| 20260905103103 | 78 | 232 | 3.0 | 5.0 | 0.00 | 0.00 | 0.00 | 85 | 985.1 |
| 20260905102603 | 78 | 231 | 3.0 | 7.0 | 0.00 | 0.00 | 0.00 | 85 | 985.2 |
| 20260905102103 | 77 | 222 | 3.0 | 6.0 | 0.00 | 0.00 | 0.00 | 86 | 985.4 |
| 20260905101603 | 77 | 213 | 3.0 | 6.0 | 0.00 | 0.00 | 0.00 | 86 | 985.5 |
| 20260905100603 | 76 | 256 | 1.0 | 2.0 | 0.00 | 0.00 | 0.00 | 88 | 985.7 |
| 20260905095602 | 76 | 0 | 0.0 | 2.0 | 0.00 | 0.00 | 0.00 | 88 | 985.8 |
| 20260905094603 | 75 | 233 | 1.0 | 2.0 | 0.00 | 0.00 | 0.00 | 88 | 985.9 |
| 20260905094103 | 75 | 290 | 0.0 | 2.0 | 0.00 | 0.00 | 0.00 | 88 | 985.9 |
| 20260905093103 | 76 | 0 | 0.0 | 0.0 | 0.00 | 0.00 | 0.00 | 88 | 985.8 |
| 20260905092103 | 76 | 0 | 0.0 | 1.0 | 0.00 | 0.00 | 0.00 | 88 | 985.8 |
| 20260905091603 | 76 | 304 | 1.0 | 2.0 | 0.00 | 0.00 | 0.00 | 88 | 985.8 |
| 20260905091103 | 76 | 0 | 0.0 | 1.0 | 0.00 | 0.00 | 0.00 | 87 | 985.6 |
| 20260905090603 | 76 | 0 | 0.0 | 1.0 | 0.00 | 0.00 | 0.00 | 87 | 985.7 |
| 20260905090103 | 76 | 0 | 0.0 | 0.0 | 0.00 | 0.00 | 0.00 | 87 | 985.6 |
| 20260905085602 | 77 | 0 | 0.0 | 0.0 | 0.00 | 0.00 | 0.00 | 87 | 985.5 |
| 20260905084603 | 78 | 0 | 0.0 | 1.0 | 0.00 | 0.00 | 0.00 | 86 | 985.2 |
| 20260905084103 | 78 | 334 | 0.0 | 1.0 | 0.00 | 0.00 | 0.00 | 86 | 985.1 |
| 20260905083603 | 78 | 0 | 0.0 | 1.0 | 0.00 | 0.00 | 0.00 | 86 | 985.0 |
| 20260905083103 | 78 | 352 | 1.0 | 3.0 | 0.00 | 0.00 | 0.00 | 86 | 984.9 |
| 20260905082604 | 78 | 206 | 2.0 | 5.0 | 0.00 | 0.00 | 0.00 | 86 | 985.0 |
| 20260905075603 | 78 | 292 | 1.0 | 2.0 | 0.00 | 0.00 | 0.00 | 87 | 985.3 |
| 20260905075103 | 78 | 275 | 1.0 | 2.0 | 0.00 | 0.00 | 0.00 | 87 | 985.2 |
| 20260905074603 | 78 | 305 | 1.0 | 3.0 | 0.00 | 0.00 | 0.00 | 87 | 985.0 |
| 20260905074103 | 78 | 295 | 1.0 | 3.0 | 0.00 | 0.00 | 0.00 | 86 | 984.9 |
| 20260905073603 | 78 | 240 | 2.0 | 5.0 | 0.00 | 0.00 | 0.00 | 87 | 985.0 |
| 20260905073103 | 77 | 228 | 2.0 | 3.0 | 0.00 | 0.00 | 0.00 | 88 | 985.2 |
| 20260905072604 | 77 | 324 | 1.0 | 2.0 | 0.00 | 0.00 | 0.00 | 87 | 985.3 |
| 20260905072103 | 77 | 350 | 0.0 | 1.0 | 0.00 | 0.00 | 0.00 | 88 | 985.3 |
| 20260905071603 | 78 | 346 | 0.0 | 1.0 | 0.00 | 0.00 | 0.00 | 88 | 985.5 |
| 20260905071104 | 78 | 281 | 1.0 | 2.0 | 0.00 | 0.00 | 0.00 | 88 | 985.5 |
| 20260905070104 | 78 | 274 | 1.0 | 1.0 | 0.00 | 0.00 | 0.00 | 88 | 985.4 |
| 20260905065603 | 78 | 321 | 1.0 | 2.0 | 0.00 | 0.00 | 0.00 | 87 | 985.5 |
| 20260905065103 | 78 | 257 | 1.0 | 2.0 | 0.00 | 0.00 | 0.00 | 88 | 985.4 |
| 20260905064603 | 77 | 245 | 1.0 | 2.0 | 0.00 | 0.00 | 0.00 | 88 | 985.5 |
| 20260905064103 | 77 | 263 | 1.0 | 2.0 | 0.00 | 0.00 | 0.00 | 88 | 985.6 |
| 20260905063604 | 77 | 263 | 1.0 | 2.0 | 0.00 | 0.00 | 0.00 | 88 | 985.7 |
| 20260905063104 | 77 | 275 | 1.0 | 2.0 | 0.00 | 0.00 | 0.00 | 87 | 985.7 |
| 20260905062603 | 77 | 358 | 0.0 | 1.0 | 0.00 | 0.00 | 0.00 | 87 | 985.7 |
| 20260905062103 | 77 | 320 | 0.0 | 1.0 | 0.00 | 0.00 | 0.00 | 88 | 985.7 |
| 20260905061603 | 77 | 302 | 0.0 | 2.0 | 0.00 | 0.00 | 0.00 | 88 | 985.7 |
| 20260905061104 | 77 | 346 | 0.0 | 1.0 | 0.00 | 0.00 | 0.00 | 87 | 985.8 |
| 20260905060603 | 77 | 0 | 0.0 | 0.0 | 0.00 | 0.00 | 0.00 | 87 | 985.8 |
| 20260905055604 | 77 | 261 | 0.0 | 1.0 | 0.00 | 0.00 | 0.00 | 88 | 985.6 |
| 20260905055103 | 77 | 0 | 0.0 | 0.0 | 0.00 | 0.00 | 0.00 | 87 | 985.8 |
| 20260905054603 | 78 | 0 | 0.0 | 0.0 | 0.00 | 0.00 | 0.00 | 87 | 985.7 |
| 20260905054103 | 78 | 0 | 0.0 | 0.0 | 0.00 | 0.00 | 0.00 | 87 | 985.6 |
| 20260905053603 | 78 | 316 | 0.0 | 1.0 | 0.00 | 0.00 | 0.00 | 87 | 985.7 |
| 20260905053103 | 78 | 0 | 0.0 | 0.0 | 0.00 | 0.00 | 0.00 | 87 | 985.7 |
| 20260905052604 | 78 | 0 | 0.0 | 1.0 | 0.00 | 0.00 | 0.00 | 87 | 985.6 |
| 20260905051603 | 78 | 263 | 1.0 | 2.0 | 0.00 | 0.00 | 0.00 | 87 | 985.5 |
| 20260905051104 | 78 | 270 | 0.0 | 1.0 | 0.00 | 0.00 | 0.00 | 87 | 985.5 |
| 20260905050103 | 78 | 250 | 1.0 | 2.0 | 0.00 | 0.00 | 0.00 | 87 | 985.5 |
| 20260905045604 | 78 | 266 | 1.0 | 2.0 | 0.00 | 0.00 | 0.00 | 87 | 985.6 |
| 20260905044603 | 78 | 349 | 0.0 | 1.0 | 0.00 | 0.00 | 0.00 | 87 | 985.6 |
| 20260905044104 | 78 | 339 | 0.0 | 1.0 | 0.00 | 0.00 | 0.00 | 87 | 985.8 |
| 20260905043104 | 78 | 0 | 0.0 | 0.0 | 0.00 | 0.00 | 0.00 | 87 | 985.7 |
| 20260905042604 | 78 | 0 | 0.0 | 0.0 | 0.00 | 0.00 | 0.00 | 87 | 985.6 |
| 20260905042104 | 79 | 0 | 0.0 | 1.0 | 0.00 | 0.00 | 0.00 | 87 | 985.6 |
| 20260905041603 | 79 | 0 | 0.0 | 0.0 | 0.00 | 0.00 | 0.00 | 86 | 985.5 |
| 20260905041104 | 79 | 346 | 0.0 | 1.0 | 0.00 | 0.00 | 0.00 | 87 | 985.3 |
| 20260905040603 | 79 | 314 | 0.0 | 1.0 | 0.00 | 0.00 | 0.00 | 87 | 985.5 |
| 20260905040104 | 79 | 0 | 0.0 | 0.0 | 0.00 | 0.00 | 0.00 | 87 | 985.5 |
| 20260905035607 | 79 | 0 | 0.0 | 0.0 | 0.00 | 0.00 | 0.00 | 86 | 985.4 |
| 20260905035103 | 79 | 281 | 0.0 | 2.0 | 0.00 | 0.00 | 0.00 | 86 | 985.2 |
| 20260905034604 | 80 | 0 | 0.0 | 0.0 | 0.00 | 0.00 | 0.00 | 86 | 985.2 |
| 20260905034104 | 80 | 0 | 0.0 | 0.0 | 0.00 | 0.00 | 0.00 | 86 | 985.2 |
| 20260905033104 | 80 | 262 | 0.0 | 2.0 | 0.00 | 0.00 | 0.00 | 86 | 985.2 |
| 20260905032604 | 80 | 0 | 0.0 | 1.0 | 0.00 | 0.00 | 0.00 | 86 | 985.3 |
| 20260905032104 | 80 | 0 | 0.0 | 1.0 | 0.00 | 0.00 | 0.00 | 86 | 985.1 |
| 20260905031604 | 80 | 307 | 0.0 | 1.0 | 0.00 | 0.00 | 0.00 | 86 | 985.2 |
| 20260905031104 | 80 | 264 | 0.0 | 1.0 | 0.00 | 0.00 | 0.00 | 86 | 985.3 |
| 20260905030604 | 80 | 292 | 1.0 | 1.0 | 0.00 | 0.00 | 0.00 | 86 | 985.2 |
| 20260905030104 | 80 | 318 | 0.0 | 1.0 | 0.00 | 0.00 | 0.00 | 86 | 985.0 |
| 20260905025604 | 80 | 358 | 0.0 | 0.0 | 0.00 | 0.00 | 0.00 | 86 | 985.2 |
| 20260905025104 | 80 | 0 | 0.0 | 1.0 | 0.00 | 0.00 | 0.00 | 86 | 985.2 |
| 20260905024604 | 80 | 315 | 0.0 | 1.0 | 0.00 | 0.00 | 0.00 | 86 | 985.1 |
| 20260905024104 | 80 | 0 | 0.0 | 1.0 | 0.00 | 0.00 | 0.00 | 86 | 985.1 |
| 20260905023104 | 81 | 349 | 0.0 | 1.0 | 0.00 | 0.00 | 0.00 | 86 | 984.9 |
| 20260905022603 | 81 | 0 | 0.0 | 1.0 | 0.00 | 0.00 | 0.00 | 86 | 985.0 |
| 20260905022104 | 81 | 0 | 0.0 | 0.0 | 0.00 | 0.00 | 0.00 | 86 | 985.0 |
| 20260905021604 | 81 | 0 | 0.0 | 0.0 | 0.00 | 0.00 | 0.00 | 86 | 984.9 |
| 20260905021104 | 81 | 0 | 0.0 | 1.0 | 0.00 | 0.00 | 0.00 | 85 | 984.8 |
| 20260905020604 | 81 | 298 | 0.0 | 1.0 | 0.00 | 0.00 | 0.00 | 85 | 984.9 |
| 20260905020104 | 81 | 0 | 0.0 | 0.0 | 0.00 | 0.00 | 0.00 | 85 | 984.8 |
| 20260905015604 | 82 | 0 | 0.0 | 0.0 | 0.00 | 0.00 | 0.00 | 85 | 984.7 |
| 20260905015101 | 82 | 0 | 0.0 | 0.0 | 0.00 | 0.00 | 0.00 | 85 | 984.6 |
| 20260905014601 | 82 | 353 | 0.0 | 1.0 | 0.00 | 0.00 | 0.00 | 85 | 984.3 |
| 20260905014101 | 82 | 0 | 0.0 | 1.0 | 0.00 | 0.00 | 0.00 | 85 | 984.4 |
| 20260905013601 | 83 | 0 | 0.0 | 0.0 | 0.00 | 0.00 | 0.00 | 85 | 984.4 |
| 20260905013101 | 83 | 0 | 0.0 | 1.0 | 0.00 | 0.00 | 0.00 | 84 | 984.1 |
| 20260905012101 | 84 | 309 | 0.0 | 1.0 | 0.00 | 0.00 | 0.00 | 84 | 984.0 |
| 20260905011600 | 84 | 0 | 1.0 | 2.0 | 0.00 | 0.00 | 0.00 | 83 | 983.9 |
| 20260905011101 | 84 | 200 | 1.0 | 2.0 | 0.00 | 0.00 | 0.00 | 83 | 983.9 |
| 20260905005601 | 85 | 246 | 1.0 | 2.0 | 0.00 | 0.00 | 0.00 | 82 | 983.7 |
| 20260905005101 | 85 | 315 | 0.0 | 2.0 | 0.00 | 0.00 | 0.00 | 82 | 983.6 |
| 20260905004602 | 86 | 0 | 0.0 | 1.0 | 0.00 | 0.00 | 0.00 | 81 | 983.5 |
| 20260905004101 | 86 | 342 | 1.0 | 1.0 | 0.00 | 0.00 | 0.00 | 80 | 983.4 |
| 20260905003101 | 87 | 0 | 0.0 | 0.0 | 0.00 | 0.00 | 0.00 | 79 | 983.2 |
| 20260905002600 | 88 | 336 | 0.0 | 1.0 | 0.00 | 0.00 | 0.00 | 77 | 982.9 |
| 20260905002101 | 89 | 239 | 1.0 | 2.0 | 0.00 | 0.00 | 0.00 | 75 | 982.7 |
| 20260905001601 | 89 | 0 | 0.0 | 1.0 | 0.00 | 0.00 | 0.00 | 74 | 982.7 |
| 20260905001101 | 90 | 329 | 1.0 | 2.0 | 0.00 | 0.00 | 0.00 | 73 | 982.6 |
| 20260905000601 | 90 | 0 | 1.0 | 2.0 | 0.00 | 0.00 | 0.00 | 71 | 982.4 |
| 20260904235601 | 91 | 268 | 2.0 | 3.0 | 0.00 | 0.00 | 0.00 | 70 | 982.4 |
| 20260904235101 | 92 | 271 | 2.0 | 5.0 | 0.00 | 0.00 | 0.00 | 67 | 982.2 |